"Pseudo-MPEC" for C14X9U2

Created 2019 Oct 10 20:07:08 UT using Find_Orb

Click here for an explanation of pseudo-MPECs

 
 Astrometry: 
     C14X9U2  C2019 10 08.37214 03 15 24.65 +17 17 35.4    ~A89b 21.9 GVNEOCPG96
     C14X9U2  C2019 10 08.37728 03 15 24.64 +17 17 50.5    ~A89b 21.5 GVNEOCPG96
     C14X9U2  C2019 10 08.38242 03 15 24.61 +17 18 05.2    ~A89b 21.3 GVNEOCPG96
     C14X9U2  C2019 10 08.38756 03 15 24.58 +17 18 19.5    ~A89b 21.4 GVNEOCPG96
     C14X9U2  C2019 10 08:IqH*SB-$nvriTV].f`YAEm+8nmf,ai$cMAstrometry1+[5y1aBF51
     C14X9U2  C2019 10 08eqYM]9g=[fd@%XFLxS3h1v;v[P14arV'ii.L)vCb-^A?*m],HV!DF51
     C14X9U2  C2019 10 08.45220 03 15 24.35 +17 21 24.4    ~A8B7 21.4 GVNEOCPI52
     C14X9U2  C2019 10 08.45331 03 15 24.37 +17 21 27.4    ~A8B7 21.8 GVNEOCPI52
     C14X9U2  C2019 10 08.45442 03 15 24.34 +17 21 31.9    ~A8B7 21.5 GVNEOCPI52
     C14X9U2  C2019 10 087R/%m[5NJ%]Q.3tLu\0=UndsRkYTG[S9gbZDT/H3FyAYNG.d1%?%F51
     C14X9U2 KC2019 10 09j915Lf6-sOt[H/YVr(i[0Q/1_Mredacted;Bclick?m!c`3herexH21
     C14X9U2 KC2019 10 092S4tLHafWABO#eG^OxH`8u\1B]fort\pro#,CO$k7j#Xf,[QTs,AH21
     C14X9U2 KC2019 10 09@xq/9`]v0UE4h=@YTe\fQi!]wu=]p^\g:explanationE[T)1?8VH21
     C14X9U2  C2019 10 10.42805 03 15 31.26 +18 55 30.4    ~AAAq 21.3 GVNEOCPG96
     C14X9U2  C2019 10 10.42950 03 15 31.24 +18 55 34.2    ~AAAq 21.4 GVNEOCPG96
     C14X9U2  C2019 10 10.43095 03 15 31.23 +18 55 39.4    ~AAAq 21.3 GVNEOCPG96
     C14X9U2  C2019 10 10.43239 03 15 31.22 +18 55 42.2    ~AAAq 21.1 GVNEOCPG96

Station data:
(F51) Pan-STARRS 1, Haleakala  (N20.707235 W156.255910)  US/Hawaii.
   Observers N. Primak, A. Schultz, S. Watters, J. Thiel, T. Goggia. Measurer
   PS1 Science Consortium. 1.8-m Ritchey-Chrétien + CCD.
(G96) Mt. Lemmon Survey  (N32.442754 W110.788720)  US/Arizona.  Observers T.
   A. Pruyne, B. M. Africano, E. J. Christensen, G. A. Farneth, D. C. Fuls,
   A. R. Gibbs, A. D. Grauer, H. Groeller, J. A. Johnson, R. A. Kowalski, S.
   M. Larson, G. J. Leonard, D. Rankin, R. L. Seaman, F. C. Shelly. 1.5-m
   reflector + 10K CCD.
(H21) Astronomical Research Observatory, Westfield  (N39.483057 W87.968270)
   US/Illinois. 0.76-m f/3.0 astrograph + CCD.
(I52) Steward Observatory, Mt. Lemmon Station  (N32.442547 W110.788920)
   US/Arizona.  Observers T. A. Pruyne, B. M. Africano, E. J. Christensen, G.
   A. Farneth, D. C. Fuls, A. R. Gibbs, A. D. Grauer, H. Groeller, J. A.
   Johnson, R. A. Kowalski, S. M. Larson, G. J. Leonard, D. Rankin, R. L.
   Seaman, F. C. Shelly. 1.0-m reflector + CCD.

Orbital elements:  C14X9U2
   Perihelion 2019 Sep 25.014865 +/- 0.267 TT =  0:21:24 (JD 2458751.514865)
Epoch 2019 Oct 10.0 TT = JDT 2458766.5   Earth MOID: 0.2401   AutoNEOCP
M   4.80640752 +/- 0.10             (J2000 ecliptic)
n   0.32074503 +/- 0.00662          Peri.  347.80744 +/- 0.24
a   2.11363222 +/- 0.0291           Node    23.29716 +/- 0.07
e   0.4151716 +/- 0.00679           Incl.   12.11275 +/- 0.13
P   3.07                   H 22.7   G  0.15   U  9.4  
q 1.23611199 +/- 0.00306    Q 2.99115245 +/- 0.0563
From 17 observations 2019 Oct. 8-10; mean residual 0".30
Residuals in arcseconds: 
191008 G96  .01-  .19-    191008 I52  .05-  .06-    191009 H21  .28+  .07+    
191008 G96  .11+  .16+    191008 I52  .29+  .22-    191010 G96  .10-  .02+    
191008 G96  .05-  .12+    191008 I52  .09-  1.1+    191010 G96  .14-  .30-    
191008 G96  .20-  .32-    191008 F51  .04-  .26-    191010 G96  .04-  .79+    
191008 F51  .06-  .10-    191009 H21  .17+  .12+    191010 G96  .05+  .50-    
191008 F51  .17-  .27-    191009 H21  .01-  .23-    

Ephemerides (geocentric):
Date (UTC) HH   RA              Dec         delta   r     elong  mag " sig PA
---- -- -- --  -------------   -----------  ------ ------ -----  --- ---- ---
2019 10 10 20  03 15 31.150   +19 14 51.31  .28786 1.2461 145.3 21.7 .099 119
2019 10 10 21  03 15 31.060   +19 16 49.81  .28785 1.2461 145.4 21.7 .107 113
2019 10 10 22  03 15 30.963   +19 18 48.29  .28784 1.2462 145.4 21.7 .117 108
2019 10 10 23  03 15 30.859   +19 20 46.75  .28783 1.2463 145.4 21.7 .127 104
2019 10 11 00  03 15 30.748   +19 22 45.19  .28782 1.2463 145.5 21.7 .139 100
2019 10 11 01  03 15 30.631   +19 24 43.61  .28781 1.2464 145.5 21.7 .152  97
2019 10 11 02  03 15 30.507   +19 26 42.01  .28780 1.2464 145.5 21.7 .165  94
2019 10 11 03  03 15 30.376   +19 28 40.38  .28779 1.2465 145.5 21.7 .179  92
2019 10 11 04  03 15 30.238   +19 30 38.74  .28778 1.2465 145.6 21.7 .194  89
2019 10 11 05  03 15 30.093   +19 32 37.07  .28778 1.2466 145.6 21.7 .209  88
2019 10 11 06  03 15 29.941   +19 34 35.37  .28777 1.2466 145.6 21.7 .225  86
2019 10 11 07  03 15 29.783   +19 36 33.66  .28776 1.2467 145.7 21.7 .242  84
2019 10 11 08  03 15 29.618   +19 38 31.92  .28775 1.2467 145.7 21.7 .259  83
2019 10 11 09  03 15 29.446   +19 40 30.15  .28774 1.2468 145.7 21.7 .277  82
2019 10 11 10  03 15 29.267   +19 42 28.37  .28774 1.2468 145.8 21.7 .295  81
2019 10 11 11  03 15 29.081   +19 44 26.56  .28773 1.2469 145.8 21.7 .314  80
2019 10 11 12  03 15 28.889   +19 46 24.72  .28772 1.2470 145.8 21.7 .333  79
2019 10 11 13  03 15 28.689   +19 48 22.86  .28772 1.2470 145.9 21.7 .353  78
2019 10 11 14  03 15 28.483   +19 50 20.98  .28771 1.2471 145.9 21.7 .373  78
2019 10 11 15  03 15 28.271   +19 52 19.07  .28771 1.2471 145.9 21.7 .393  77
2019 10 11 16  03 15 28.051   +19 54 17.13  .28770 1.2472 146.0 21.7 .414  76
2019 10 11 17  03 15 27.824   +19 56 15.17  .28769 1.2472 146.0 21.7 .436  76
2019 10 11 18  03 15 27.591   +19 58 13.18  .28769 1.2473 146.0 21.7 .458  75
2019 10 11 19  03 15 27.351   +20 00 11.17  .28768 1.2473 146.1 21.7 .481  75
2019 10 11 20  03 15 27.104   +20 02 09.13  .28768 1.2474 146.1 21.7 .504  74
2019 10 11 21  03 15 26.851   +20 04 07.06  .28768 1.2474 146.1 21.7 .527  74
2019 10 11 22  03 15 26.590   +20 06 04.97  .28767 1.2475 146.2 21.7 .551  73
2019 10 11 23  03 15 26.323   +20 08 02.85  .28767 1.2476 146.2 21.7 .575  73
2019 10 12 00  03 15 26.049   +20 10 00.70  .28766 1.2476 146.2 21.7 .600  73
2019 10 12 01  03 15 25.768   +20 11 58.53  .28766 1.2477 146.3 21.7 .625  72
2019 10 12 02  03 15 25.481   +20 13 56.32  .28766 1.2477 146.3 21.7 .651  72
2019 10 12 03  03 15 25.186   +20 15 54.09  .28765 1.2478 146.3 21.6 .677  72
2019 10 12 04  03 15 24.885   +20 17 51.83  .28765 1.2478 146.3 21.6 .703  72
2019 10 12 05  03 15 24.577   +20 19 49.54  .28765 1.2479 146.4 21.6 .730  71
2019 10 12 06  03 15 24.262   +20 21 47.23  .28764 1.2480 146.4 21.6 .758  71
2019 10 12 07  03 15 23.941   +20 23 44.88  .28764 1.2480 146.4 21.6 .786  71
2019 10 12 08  03 15 23.612   +20 25 42.50  .28764 1.2481 146.5 21.6 .814  71
2019 10 12 09  03 15 23.277   +20 27 40.10  .28764 1.2481 146.5 21.6 .843  70
2019 10 12 10  03 15 22.935   +20 29 37.66  .28764 1.2482 146.5 21.6 .872  70
2019 10 12 11  03 15 22.587   +20 31 35.20  .28763 1.2482 146.6 21.6 .902  70
2019 10 12 12  03 15 22.231   +20 33 32.70  .28763 1.2483 146.6 21.6 .932  70
2019 10 12 13  03 15 21.869   +20 35 30.17  .28763 1.2484 146.6 21.6 .962  70
2019 10 12 14  03 15 21.500   +20 37 27.62  .28763 1.2484 146.7 21.6 0.99  70
2019 10 12 15  03 15 21.125   +20 39 25.03  .28763 1.2485 146.7 21.6 1.02  69
2019 10 12 16  03 15 20.742   +20 41 22.41  .28763 1.2485 146.7 21.6 1.06  69
2019 10 12 17  03 15 20.353   +20 43 19.75  .28763 1.2486 146.8 21.6 1.09  69
2019 10 12 18  03 15 19.957   +20 45 17.07  .28763 1.2486 146.8 21.6 1.12  69
2019 10 12 19  03 15 19.554   +20 47 14.35  .28763 1.2487 146.8 21.6 1.15  69